| time (UTC) | temp F | wind direction | speed MPH | gust MPH | rain 1hr in | rain 24hr in | rain mn in | humidity % | barometer mb |
| 20260509184201 | 77 | 160 | 2.0 | 3.0 | 0.00 | 0.00 | 0.19 | 85 | 1011.0 |
| 20260509183701 | 77 | 146 | 3.0 | 4.0 | 0.00 | 0.00 | 0.19 | 86 | 1011.1 |
| 20260509183200 | 76 | 169 | 3.0 | 4.0 | 0.00 | 0.00 | 0.19 | 86 | 1011.0 |
| 20260509182702 | 76 | 188 | 0.0 | 1.0 | 0.00 | 0.00 | 0.19 | 87 | 1011.1 |
| 20260509182202 | 75 | 66 | 2.0 | 4.0 | 0.00 | 0.00 | 0.19 | 88 | 1011.2 |
| 20260509181702 | 75 | 60 | 0.0 | 0.0 | 0.00 | 0.00 | 0.19 | 89 | 1011.3 |
| 20260509181202 | 75 | 0 | 0.0 | 0.0 | 0.00 | 0.00 | 0.19 | 89 | 1011.4 |
| 20260509180702 | 75 | 356 | 0.0 | 1.0 | 0.00 | 0.00 | 0.19 | 89 | 1011.4 |
| 20260509180202 | 75 | 298 | 1.0 | 2.0 | 0.00 | 0.00 | 0.19 | 89 | 1011.4 |
| 20260509175703 | 75 | 318 | 0.0 | 0.0 | 0.00 | 0.00 | 0.19 | 88 | 1011.5 |
| 20260509175200 | 75 | 0 | 0.0 | 0.0 | 0.00 | 0.00 | 0.19 | 89 | 1011.6 |
| 20260509174701 | 75 | 0 | 0.0 | 0.0 | 0.00 | 0.00 | 0.19 | 88 | 1011.7 |
| 20260509174200 | 75 | 345 | 1.0 | 2.0 | 0.00 | 0.00 | 0.19 | 88 | 1011.7 |
| 20260509173701 | 75 | 315 | 0.0 | 0.0 | 0.00 | 0.00 | 0.19 | 88 | 1011.8 |
| 20260509173201 | 75 | 0 | 0.0 | 0.0 | 0.00 | 0.00 | 0.19 | 89 | 1011.9 |
| 20260509172705 | 74 | 153 | 0.0 | 0.0 | 0.00 | 0.00 | 0.19 | 90 | 1011.8 |
| 20260509172200 | 74 | 210 | 1.0 | 2.0 | 0.00 | 0.00 | 0.19 | 91 | 1011.8 |
| 20260509171701 | 74 | 0 | 0.0 | 0.0 | 0.00 | 0.00 | 0.19 | 93 | 1011.9 |
| 20260509171202 | 73 | 171 | 2.0 | 2.0 | 0.00 | 0.00 | 0.19 | 94 | 1011.8 |
| 20260509170700 | 73 | 132 | 0.0 | 0.0 | 0.00 | 0.00 | 0.19 | 95 | 1011.8 |
| 20260509170202 | 73 | 104 | 2.0 | 3.0 | 0.00 | 0.00 | 0.19 | 94 | 1012.0 |
| 20260509165700 | 72 | 70 | 2.0 | 3.0 | 0.00 | 0.00 | 0.19 | 95 | 1012.0 |
| 20260509165210 | 72 | 141 | 2.0 | 2.0 | 0.00 | 0.00 | 0.19 | 95 | 1012.0 |
| 20260509164700 | 72 | 134 | 2.0 | 3.0 | 0.00 | 0.00 | 0.19 | 96 | 1012.0 |
| 20260509164201 | 71 | 133 | 3.0 | 4.0 | 0.00 | 0.00 | 0.19 | 95 | 1012.1 |
| 20260509163701 | 71 | 131 | 3.0 | 4.0 | 0.00 | 0.00 | 0.19 | 95 | 1012.0 |
| 20260509163202 | 71 | 132 | 2.0 | 2.0 | 0.00 | 0.00 | 0.19 | 96 | 1011.8 |
| 20260509162701 | 70 | 135 | 3.0 | 4.0 | 0.00 | 0.00 | 0.19 | 96 | 1011.9 |
| 20260509162200 | 70 | 133 | 4.0 | 5.0 | 0.00 | 0.00 | 0.19 | 96 | 1011.8 |
| 20260509161701 | 70 | 133 | 4.0 | 4.0 | 0.00 | 0.00 | 0.19 | 96 | 1011.8 |
| 20260509161200 | 70 | 134 | 4.0 | 4.0 | 0.00 | 0.00 | 0.19 | 96 | 1011.8 |
| 20260509160701 | 70 | 133 | 4.0 | 4.0 | 0.00 | 0.00 | 0.19 | 96 | 1011.8 |
| 20260509160203 | 70 | 132 | 3.0 | 4.0 | 0.00 | 0.00 | 0.19 | 96 | 1011.8 |
| 20260509155703 | 70 | 132 | 3.0 | 4.0 | 0.00 | 0.00 | 0.19 | 96 | 1011.7 |
| 20260509155201 | 70 | 131 | 3.0 | 3.0 | 0.00 | 0.00 | 0.19 | 96 | 1011.6 |
| 20260509154700 | 70 | 132 | 3.0 | 3.0 | 0.00 | 0.00 | 0.19 | 96 | 1011.5 |
| 20260509154200 | 69 | 133 | 2.0 | 2.0 | 0.00 | 0.00 | 0.19 | 96 | 1011.6 |
| 20260509153700 | 69 | 138 | 2.0 | 2.0 | 0.00 | 0.00 | 0.19 | 96 | 1011.5 |
| 20260509153202 | 69 | 138 | 2.0 | 3.0 | 0.00 | 0.00 | 0.19 | 96 | 1011.4 |
| 20260509152702 | 69 | 127 | 2.0 | 3.0 | 0.00 | 0.00 | 0.19 | 96 | 1011.5 |
| 20260509152202 | 69 | 133 | 2.0 | 2.0 | 0.00 | 0.00 | 0.19 | 96 | 1011.6 |
| 20260509151700 | 69 | 138 | 2.0 | 2.0 | 0.00 | 0.00 | 0.19 | 96 | 1011.5 |
| 20260509151201 | 69 | 110 | 2.0 | 2.0 | 0.00 | 0.00 | 0.19 | 96 | 1011.4 |
| 20260509150702 | 69 | 99 | 1.0 | 2.0 | 0.00 | 0.00 | 0.19 | 96 | 1011.3 |
| 20260509150203 | 69 | 85 | 3.0 | 4.0 | 0.00 | 0.00 | 0.19 | 96 | 1011.2 |
| 20260509145701 | 68 | 83 | 2.0 | 3.0 | 0.00 | 0.00 | 0.19 | 96 | 1011.2 |
| 20260509145202 | 68 | 97 | 3.0 | 4.0 | 0.00 | 0.00 | 0.19 | 96 | 1011.2 |
| 20260509144703 | 68 | 319 | 1.0 | 2.0 | 0.00 | 0.00 | 0.19 | 96 | 1011.3 |
| 20260509144202 | 68 | 133 | 2.0 | 2.0 | 0.00 | 0.00 | 0.19 | 96 | 1011.3 |
| 20260509143700 | 68 | 319 | 2.0 | 2.0 | 0.00 | 0.00 | 0.19 | 96 | 1011.4 |
| 20260509143200 | 68 | 134 | 2.0 | 2.0 | 0.00 | 0.00 | 0.19 | 96 | 1011.4 |
| 20260509142705 | 68 | 124 | 2.0 | 2.0 | 0.00 | 0.00 | 0.19 | 96 | 1011.7 |
| 20260509142201 | 68 | 132 | 2.0 | 3.0 | 0.00 | 0.00 | 0.19 | 96 | 1011.7 |
| 20260509141700 | 68 | 132 | 4.0 | 4.0 | 0.00 | 0.00 | 0.19 | 96 | 1011.8 |
| 20260509141202 | 68 | 138 | 4.0 | 4.0 | 0.00 | 0.00 | 0.19 | 96 | 1011.7 |
| 20260509140703 | 68 | 126 | 3.0 | 3.0 | 0.00 | 0.00 | 0.19 | 96 | 1011.7 |
| 20260509140201 | 68 | 154 | 3.0 | 4.0 | 0.00 | 0.00 | 0.19 | 96 | 1011.7 |
| 20260509135700 | 68 | 162 | 3.0 | 3.0 | 0.00 | 0.00 | 0.19 | 96 | 1011.7 |
| 20260509135201 | 68 | 117 | 2.0 | 4.0 | 0.00 | 0.00 | 0.19 | 96 | 1011.6 |
| 20260509134701 | 68 | 139 | 3.0 | 4.0 | 0.00 | 0.00 | 0.19 | 96 | 1011.5 |
| 20260509134201 | 68 | 143 | 3.0 | 5.0 | 0.00 | 0.00 | 0.19 | 96 | 1011.6 |
| 20260509133702 | 68 | 131 | 2.0 | 3.0 | 0.00 | 0.00 | 0.19 | 96 | 1011.7 |
| 20260509133202 | 68 | 140 | 4.0 | 6.0 | 0.00 | 0.00 | 0.19 | 96 | 1011.6 |
| 20260509132700 | 68 | 158 | 4.0 | 6.0 | 0.00 | 0.00 | 0.19 | 96 | 1011.6 |
| 20260509132201 | 68 | 179 | 5.0 | 8.0 | 0.00 | 0.00 | 0.19 | 96 | 1011.7 |
| 20260509131700 | 68 | 162 | 5.0 | 8.0 | 0.00 | 0.00 | 0.19 | 95 | 1011.7 |
| 20260509131201 | 68 | 119 | 3.0 | 3.0 | 0.00 | 0.00 | 0.19 | 96 | 1011.8 |
| 20260509130703 | 68 | 124 | 2.0 | 3.0 | 0.00 | 0.00 | 0.19 | 95 | 1011.7 |
| 20260509130202 | 68 | 120 | 2.0 | 2.0 | 0.00 | 0.00 | 0.19 | 95 | 1011.7 |
| 20260509125700 | 68 | 99 | 2.0 | 4.0 | 0.00 | 0.00 | 0.19 | 96 | 1011.5 |
| 20260509125202 | 68 | 142 | 4.0 | 8.0 | 0.00 | 0.00 | 0.19 | 95 | 1011.4 |
| 20260509124703 | 68 | 24 | 2.0 | 3.0 | 0.00 | 0.00 | 0.19 | 95 | 1011.3 |
| 20260509124201 | 67 | 102 | 4.0 | 5.0 | 0.00 | 0.00 | 0.19 | 95 | 1011.1 |
| 20260509123701 | 67 | 105 | 2.0 | 4.0 | 0.00 | 0.00 | 0.19 | 95 | 1011.1 |
| 20260509123202 | 67 | 133 | 2.0 | 3.0 | 0.01 | 0.00 | 0.19 | 95 | 1011.1 |
| 20260509122702 | 67 | 105 | 2.0 | 4.0 | 0.01 | 0.00 | 0.19 | 95 | 1011.1 |
| 20260509122202 | 67 | 139 | 5.0 | 9.0 | 0.02 | 0.00 | 0.19 | 95 | 1011.1 |
| 20260509121702 | 67 | 138 | 4.0 | 7.0 | 0.02 | 0.00 | 0.19 | 95 | 1011.2 |
| 20260509121201 | 67 | 137 | 4.0 | 6.0 | 0.02 | 0.00 | 0.19 | 95 | 1011.2 |
| 20260509120703 | 67 | 75 | 3.0 | 4.0 | 0.03 | 0.00 | 0.19 | 95 | 1011.2 |
| 20260509120200 | 67 | 85 | 2.0 | 3.0 | 0.04 | 0.00 | 0.19 | 95 | 1011.1 |
| 20260509115701 | 67 | 115 | 3.0 | 3.0 | 0.04 | 0.00 | 0.19 | 95 | 1011.1 |
| 20260509115202 | 67 | 112 | 3.0 | 4.0 | 0.04 | 0.00 | 0.19 | 95 | 1011.0 |
| 20260509114702 | 67 | 86 | 2.0 | 3.0 | 0.04 | 0.00 | 0.19 | 95 | 1011.0 |
| 20260509114202 | 67 | 117 | 3.0 | 3.0 | 0.03 | 0.00 | 0.19 | 95 | 1011.1 |
| 20260509113702 | 67 | 113 | 2.0 | 3.0 | 0.02 | 0.00 | 0.19 | 95 | 1011.1 |
| 20260509113200 | 67 | 139 | 3.0 | 4.0 | 0.02 | 0.00 | 0.18 | 95 | 1011.2 |
| 20260509112701 | 67 | 109 | 3.0 | 4.0 | 0.02 | 0.00 | 0.18 | 95 | 1011.1 |
| 20260509112207 | 67 | 117 | 3.0 | 4.0 | 0.02 | 0.00 | 0.18 | 95 | 1011.1 |
| 20260509111701 | 67 | 148 | 4.0 | 7.0 | 0.02 | 0.00 | 0.17 | 95 | 1011.2 |
| 20260509111203 | 67 | 57 | 2.0 | 3.0 | 0.02 | 0.00 | 0.17 | 95 | 1011.1 |
| 20260509110702 | 67 | 126 | 3.0 | 4.0 | 0.02 | 0.00 | 0.17 | 95 | 1011.1 |
| 20260509110202 | 67 | 102 | 2.0 | 3.0 | 0.00 | 0.00 | 0.17 | 95 | 1011.2 |
| 20260509105702 | 67 | 345 | 2.0 | 3.0 | 0.00 | 0.00 | 0.17 | 95 | 1011.2 |
| 20260509105200 | 67 | 23 | 3.0 | 4.0 | 0.00 | 0.00 | 0.15 | 95 | 1011.2 |
| 20260509104701 | 67 | 117 | 2.0 | 3.0 | 0.00 | 0.00 | 0.15 | 95 | 1011.0 |
| 20260509104201 | 67 | 133 | 2.0 | 3.0 | 0.00 | 0.00 | 0.15 | 95 | 1011.0 |
| 20260509103706 | 67 | 131 | 4.0 | 5.0 | 0.00 | 0.00 | 0.15 | 95 | 1010.9 |
| 20260509103201 | 67 | 102 | 2.0 | 3.0 | 0.00 | 0.00 | 0.15 | 95 | 1010.8 |
| 20260509102702 | 68 | 113 | 2.0 | 4.0 | 0.00 | 0.00 | 0.15 | 95 | 1010.8 |
| 20260509102200 | 68 | 106 | 5.0 | 7.0 | 0.00 | 0.00 | 0.33 | 95 | 1010.7 |
| 20260509101704 | 68 | 67 | 5.0 | 7.0 | 0.00 | 0.00 | 0.33 | 95 | 1010.8 |
| 20260509101202 | 69 | 105 | 4.0 | 4.0 | 0.00 | 0.00 | 0.33 | 95 | 1010.8 |
| 20260509100703 | 69 | 74 | 3.0 | 4.0 | 0.33 | 0.00 | 0.33 | 95 | 1010.7 |
| 20260509100202 | 69 | 87 | 2.0 | 3.0 | 0.33 | 0.00 | 0.33 | 95 | 1010.6 |
| 20260509095702 | 69 | 95 | 2.0 | 4.0 | 0.33 | 0.00 | 0.33 | 95 | 1010.5 |
| 20260509095200 | 69 | 56 | 2.0 | 3.0 | 0.33 | 0.00 | 0.33 | 95 | 1010.4 |
| 20260509094702 | 69 | 71 | 2.0 | 3.0 | 0.33 | 0.00 | 0.33 | 94 | 1010.2 |
| 20260509094200 | 69 | 112 | 3.0 | 3.0 | 0.33 | 0.00 | 0.33 | 94 | 1010.1 |
| 20260509093704 | 69 | 141 | 3.0 | 4.0 | 0.33 | 0.00 | 0.33 | 94 | 1010.0 |
| 20260509093200 | 69 | 135 | 3.0 | 4.0 | 0.33 | 0.00 | 0.33 | 94 | 1009.9 |
| 20260509092701 | 69 | 125 | 2.0 | 6.0 | 0.03 | 0.00 | 0.33 | 94 | 1010.1 |
| 20260509092200 | 69 | 114 | 3.0 | 5.0 | 0.03 | 0.00 | 0.33 | 94 | 1010.2 |
| 20260509091700 | 69 | 87 | 6.0 | 7.0 | 0.00 | 0.00 | 0.03 | 94 | 1010.4 |
| 20260509091200 | 69 | 160 | 3.0 | 4.0 | 0.00 | 0.00 | 0.03 | 94 | 1010.6 |
| 20260509090701 | 69 | 137 | 2.0 | 3.0 | 0.00 | 0.00 | 0.03 | 94 | 1010.7 |
| 20260509090203 | 69 | 64 | 4.0 | 6.0 | 0.00 | 0.00 | 0.03 | 94 | 1010.7 |
| 20260509085700 | 69 | 77 | 2.0 | 3.0 | 0.00 | 0.00 | 0.00 | 94 | 1010.7 |
| 20260509085200 | 69 | 74 | 3.0 | 3.0 | 0.00 | 0.00 | 0.00 | 94 | 1010.6 |
| 20260509084700 | 69 | 44 | 2.0 | 2.0 | 0.00 | 0.00 | 0.00 | 94 | 1010.6 |
| 20260509084201 | 69 | 356 | 2.0 | 2.0 | 0.00 | 0.00 | 0.00 | 94 | 1010.7 |
| 20260509083701 | 69 | 99 | 2.0 | 3.0 | 0.00 | 0.00 | 0.00 | 94 | 1010.7 |
| 20260509083201 | 69 | 95 | 2.0 | 2.0 | 0.00 | 0.00 | 0.00 | 94 | 1010.8 |
| 20260509082701 | 70 | 100 | 2.0 | 2.0 | 0.00 | 0.00 | 0.00 | 94 | 1010.8 |
| 20260509082200 | 70 | 126 | 2.0 | 2.0 | 0.00 | 0.00 | 0.00 | 93 | 1010.9 |
| 20260509081701 | 70 | 111 | 3.0 | 3.0 | 0.00 | 0.00 | 0.00 | 93 | 1010.9 |
| 20260509081203 | 70 | 97 | 2.0 | 2.0 | 0.00 | 0.00 | 0.00 | 93 | 1011.0 |
| 20260509080701 | 70 | 105 | 1.0 | 2.0 | 0.00 | 0.00 | 0.00 | 93 | 1011.2 |
| 20260509080202 | 70 | 84 | 2.0 | 2.0 | 0.00 | 0.00 | 0.00 | 93 | 1011.1 |
| 20260509075701 | 70 | 72 | 2.0 | 2.0 | 0.00 | 0.00 | 0.00 | 93 | 1011.0 |
| 20260509075200 | 70 | 98 | 2.0 | 2.0 | 0.00 | 0.00 | 0.00 | 93 | 1011.0 |
| 20260509074701 | 70 | 151 | 2.0 | 2.0 | 0.00 | 0.00 | 0.00 | 93 | 1011.0 |
| 20260509074202 | 70 | 144 | 2.0 | 2.0 | 0.00 | 0.00 | 0.00 | 92 | 1010.9 |
| 20260509073701 | 70 | 117 | 1.0 | 1.0 | 0.00 | 0.00 | 0.00 | 92 | 1011.0 |
| 20260509073200 | 70 | 91 | 0.0 | 1.0 | 0.00 | 0.00 | 0.00 | 92 | 1010.9 |
| 20260509072703 | 70 | 101 | 1.0 | 2.0 | 0.00 | 0.00 | 0.00 | 92 | 1010.9 |
| 20260509072201 | 70 | 97 | 2.0 | 2.0 | 0.00 | 0.00 | 0.00 | 92 | 1010.9 |
| 20260509071701 | 70 | 129 | 1.0 | 2.0 | 0.00 | 0.00 | 0.00 | 92 | 1011.0 |
| 20260509071202 | 70 | 139 | 1.0 | 2.0 | 0.00 | 0.00 | 0.00 | 92 | 1011.1 |
| 20260509070701 | 70 | 115 | 1.0 | 1.0 | 0.00 | 0.00 | 0.00 | 92 | 1011.2 |
| 20260509070203 | 70 | 139 | 0.0 | 0.0 | 0.00 | 0.00 | 0.00 | 92 | 1011.4 |
| 20260509065701 | 70 | 97 | 1.0 | 2.0 | 0.00 | 0.00 | 0.00 | 92 | 1011.4 |
| 20260509065200 | 70 | 106 | 1.0 | 1.0 | 0.00 | 0.00 | 0.00 | 92 | 1011.4 |
| 20260509064700 | 70 | 106 | 2.0 | 2.0 | 0.00 | 0.00 | 0.00 | 92 | 1011.4 |
| 20260509064201 | 70 | 94 | 1.0 | 2.0 | 0.00 | 0.00 | 0.00 | 92 | 1011.5 |
| 20260509063700 | 70 | 97 | 1.0 | 2.0 | 0.00 | 0.00 | 0.00 | 92 | 1011.5 |
| 20260509063201 | 70 | 95 | 1.0 | 1.0 | 0.00 | 0.00 | 0.00 | 92 | 1011.5 |
| 20260509062702 | 70 | 106 | 0.0 | 1.0 | 0.00 | 0.00 | 0.00 | 92 | 1011.6 |
| 20260509062200 | 70 | 105 | 0.0 | 1.0 | 0.00 | 0.00 | 0.00 | 92 | 1011.5 |
| 20260509061701 | 70 | 96 | 1.0 | 1.0 | 0.00 | 0.00 | 0.00 | 92 | 1011.6 |
| 20260509061200 | 70 | 128 | 0.0 | 0.0 | 0.00 | 0.00 | 0.00 | 92 | 1011.6 |
| 20260509060701 | 70 | 112 | 1.0 | 1.0 | 0.00 | 0.00 | 0.00 | 92 | 1011.7 |
| 20260509060202 | 70 | 134 | 0.0 | 0.0 | 0.00 | 0.00 | 0.00 | 92 | 1011.8 |
| 20260509055700 | 70 | 139 | 0.0 | 1.0 | 0.00 | 0.00 | 0.00 | 91 | 1011.8 |
| 20260509055200 | 70 | 118 | 1.0 | 2.0 | 0.00 | 0.00 | 0.00 | 91 | 1011.7 |
| 20260509054700 | 70 | 153 | 1.0 | 2.0 | 0.00 | 0.00 | 0.00 | 91 | 1011.8 |
| 20260509054201 | 70 | 160 | 1.0 | 2.0 | 0.00 | 0.00 | 0.00 | 91 | 1011.9 |
| 20260509053700 | 70 | 175 | 1.0 | 2.0 | 0.00 | 0.00 | 0.00 | 91 | 1012.0 |
| 20260509053201 | 70 | 155 | 0.0 | 1.0 | 0.00 | 0.00 | 0.00 | 91 | 1011.9 |
| 20260509052701 | 70 | 139 | 1.0 | 2.0 | 0.00 | 0.00 | 0.00 | 91 | 1011.8 |
| 20260509052200 | 70 | 179 | 1.0 | 2.0 | 0.00 | 0.00 | 0.00 | 91 | 1011.8 |
| 20260509051701 | 70 | 145 | 0.0 | 0.0 | 0.00 | 0.00 | 0.00 | 91 | 1011.8 |
| 20260509051202 | 70 | 203 | 1.0 | 2.0 | 0.00 | 0.00 | 0.00 | 91 | 1011.6 |
| 20260509050700 | 70 | 142 | 1.0 | 1.0 | 0.00 | 0.00 | 0.00 | 91 | 1011.5 |
| 20260509050203 | 70 | 106 | 1.0 | 1.0 | 0.00 | 0.00 | 0.00 | 91 | 1011.5 |
| 20260509045702 | 70 | 9 | 0.0 | 1.0 | 0.00 | 0.00 | 0.01 | 91 | 1011.4 |
| 20260509045200 | 70 | 153 | 2.0 | 2.0 | 0.00 | 0.00 | 0.01 | 91 | 1011.2 |
| 20260509044700 | 70 | 178 | 2.0 | 2.0 | 0.00 | 0.00 | 0.01 | 91 | 1011.3 |
| 20260509044202 | 70 | 69 | 0.0 | 1.0 | 0.00 | 0.00 | 0.01 | 91 | 1011.3 |
| 20260509043702 | 70 | 83 | 2.0 | 2.0 | 0.00 | 0.00 | 0.01 | 91 | 1011.2 |
| 20260509043201 | 70 | 73 | 2.0 | 2.0 | 0.00 | 0.00 | 0.01 | 91 | 1011.3 |
| 20260509042702 | 70 | 104 | 2.0 | 2.0 | 0.00 | 0.00 | 0.01 | 91 | 1011.3 |
| 20260509042201 | 70 | 112 | 0.0 | 1.0 | 0.00 | 0.00 | 0.01 | 90 | 1011.2 |
| 20260509041702 | 70 | 87 | 1.0 | 2.0 | 0.00 | 0.00 | 0.01 | 90 | 1011.1 |
| 20260509041200 | 70 | 0 | 0.0 | 0.0 | 0.00 | 0.00 | 0.01 | 90 | 1011.2 |
| 20260509040701 | 71 | 123 | 3.0 | 4.0 | 0.00 | 0.00 | 0.01 | 90 | 1011.2 |
| 20260509040202 | 71 | 132 | 3.0 | 3.0 | 0.00 | 0.00 | 0.01 | 90 | 1011.2 |
| 20260509035700 | 71 | 122 | 3.0 | 3.0 | 0.00 | 0.00 | 0.01 | 90 | 1011.1 |
| 20260509035200 | 71 | 139 | 2.0 | 2.0 | 0.00 | 0.00 | 0.01 | 90 | 1011.2 |
| 20260509034701 | 71 | 158 | 4.0 | 4.0 | 0.00 | 0.00 | 0.01 | 90 | 1011.1 |
| 20260509034202 | 71 | 166 | 4.0 | 4.0 | 0.00 | 0.00 | 0.01 | 90 | 1011.1 |
| 20260509033701 | 71 | 154 | 2.0 | 2.0 | 0.00 | 0.00 | 0.01 | 90 | 1011.2 |
| 20260509033200 | 71 | 139 | 1.0 | 2.0 | 0.00 | 0.00 | 0.01 | 90 | 1011.1 |
| 20260509032701 | 71 | 147 | 1.0 | 2.0 | 0.00 | 0.00 | 0.01 | 90 | 1011.1 |
| 20260509032200 | 71 | 257 | 3.0 | 4.0 | 0.00 | 0.00 | 0.01 | 90 | 1011.1 |
| 20260509031700 | 71 | 95 | 1.0 | 2.0 | 0.00 | 0.00 | 0.01 | 90 | 1011.0 |
| 20260509031201 | 71 | 165 | 5.0 | 6.0 | 0.00 | 0.00 | 0.01 | 90 | 1011.0 |
| 20260509030701 | 71 | 177 | 1.0 | 4.0 | 0.00 | 0.00 | 0.01 | 89 | 1010.9 |
| 20260509030202 | 71 | 165 | 5.0 | 9.0 | 0.00 | 0.00 | 0.01 | 89 | 1010.8 |
| 20260509025702 | 71 | 153 | 4.0 | 7.0 | 0.00 | 0.00 | 0.01 | 89 | 1010.6 |
| 20260509025203 | 71 | 147 | 4.0 | 8.0 | 0.00 | 0.00 | 0.01 | 89 | 1010.6 |
| 20260509024702 | 71 | 138 | 4.0 | 6.0 | 0.00 | 0.00 | 0.01 | 89 | 1010.6 |
| 20260509024201 | 71 | 145 | 4.0 | 6.0 | 0.00 | 0.00 | 0.01 | 89 | 1010.6 |
| 20260509023700 | 71 | 168 | 6.0 | 8.0 | 0.00 | 0.00 | 0.01 | 89 | 1010.5 |
| 20260509023202 | 71 | 163 | 6.0 | 7.0 | 0.00 | 0.00 | 0.01 | 89 | 1010.3 |
| 20260509022701 | 71 | 178 | 7.0 | 9.0 | 0.00 | 0.00 | 0.01 | 89 | 1010.3 |
| 20260509022202 | 71 | 154 | 5.0 | 6.0 | 0.00 | 0.00 | 0.01 | 89 | 1010.3 |
| 20260509021700 | 71 | 169 | 5.0 | 7.0 | 0.00 | 0.00 | 0.01 | 89 | 1010.2 |
| 20260509021203 | 71 | 153 | 5.0 | 6.0 | 0.00 | 0.00 | 0.01 | 89 | 1010.2 |
| 20260509020701 | 70 | 166 | 5.0 | 6.0 | 0.00 | 0.00 | 0.01 | 89 | 1010.2 |
| 20260509020202 | 70 | 165 | 7.0 | 9.0 | 0.00 | 0.00 | 0.01 | 89 | 1010.1 |
| 20260509015701 | 70 | 161 | 5.0 | 7.0 | 0.00 | 0.00 | 0.01 | 89 | 1010.0 |
| 20260509015201 | 70 | 170 | 7.0 | 11.0 | 0.00 | 0.00 | 0.01 | 89 | 1009.9 |
| 20260509014701 | 70 | 152 | 4.0 | 5.0 | 0.00 | 0.00 | 0.01 | 89 | 1009.9 |
| 20260509014200 | 70 | 160 | 5.0 | 6.0 | 0.00 | 0.00 | 0.01 | 89 | 1009.8 |
| 20260509013700 | 70 | 155 | 6.0 | 7.0 | 0.00 | 0.00 | 0.01 | 89 | 1009.7 |
| 20260509013200 | 70 | 157 | 5.0 | 6.0 | 0.00 | 0.00 | 0.01 | 90 | 1009.7 |
| 20260509012701 | 70 | 111 | 4.0 | 5.0 | 0.00 | 0.00 | 0.01 | 90 | 1009.7 |
| 20260509012201 | 70 | 111 | 3.0 | 5.0 | 0.00 | 0.00 | 0.01 | 90 | 1009.9 |
| 20260509011700 | 70 | 117 | 3.0 | 6.0 | 0.00 | 0.00 | 0.01 | 90 | 1009.9 |
| 20260509011203 | 70 | 137 | 2.0 | 4.0 | 0.00 | 0.00 | 0.01 | 90 | 1009.9 |
| 20260509010700 | 70 | 148 | 4.0 | 5.0 | 0.00 | 0.00 | 0.01 | 90 | 1009.9 |
| 20260509010200 | 70 | 147 | 4.0 | 7.0 | 0.00 | 0.00 | 0.01 | 89 | 1009.9 |
| 20260509005700 | 70 | 139 | 4.0 | 8.0 | 0.00 | 0.00 | 0.01 | 89 | 1009.8 |
| 20260509005201 | 71 | 158 | 6.0 | 8.0 | 0.00 | 0.00 | 0.01 | 89 | 1009.7 |
| 20260509004701 | 71 | 126 | 3.0 | 4.0 | 0.00 | 0.00 | 0.01 | 88 | 1009.9 |
| 20260509004200 | 71 | 110 | 6.0 | 8.0 | 0.00 | 0.00 | 0.01 | 88 | 1010.1 |
| 20260509003701 | 71 | 107 | 5.0 | 6.0 | 0.00 | 0.00 | 0.01 | 87 | 1010.4 |
| 20260509003200 | 71 | 112 | 4.0 | 9.0 | 0.00 | 0.00 | 0.01 | 87 | 1010.3 |
| 20260509002700 | 71 | 145 | 4.0 | 6.0 | 0.00 | 0.00 | 0.01 | 87 | 1010.3 |
| 20260509002201 | 72 | 137 | 2.0 | 5.0 | 0.00 | 0.00 | 0.01 | 87 | 1010.5 |
| 20260509001700 | 72 | 155 | 4.0 | 6.0 | 0.00 | 0.00 | 0.01 | 86 | 1010.7 |
| 20260509001201 | 72 | 108 | 4.0 | 6.0 | 0.00 | 0.00 | 0.01 | 86 | 1010.8 |
| 20260509000701 | 72 | 106 | 5.0 | 6.0 | 0.00 | 0.00 | 0.01 | 85 | 1010.8 |
| 20260509000201 | 72 | 104 | 4.0 | 5.0 | 0.00 | 0.00 | 0.01 | 85 | 1010.8 |
| 20260508235701 | 72 | 109 | 5.0 | 7.0 | 0.00 | 0.00 | 0.01 | 85 | 1010.9 |
| 20260508235201 | 72 | 91 | 5.0 | 7.0 | 0.00 | 0.00 | 0.01 | 85 | 1010.9 |
| 20260508234701 | 72 | 112 | 1.0 | 3.0 | 0.00 | 0.00 | 0.01 | 85 | 1011.1 |
| 20260508234201 | 72 | 158 | 4.0 | 6.0 | 0.01 | 0.00 | 0.01 | 85 | 1011.1 |
| 20260508233701 | 72 | 154 | 4.0 | 5.0 | 0.01 | 0.00 | 0.01 | 85 | 1011.1 |
| 20260508233201 | 72 | 147 | 3.0 | 4.0 | 0.00 | 0.00 | 0.01 | 85 | 1011.2 |
| 20260508232703 | 72 | 108 | 2.0 | 3.0 | 0.00 | 0.00 | 0.01 | 85 | 1011.4 |
| 20260508232201 | 72 | 109 | 1.0 | 2.0 | 0.00 | 0.00 | 0.01 | 84 | 1011.4 |
| 20260508231700 | 72 | 107 | 3.0 | 4.0 | 0.00 | 0.00 | 0.01 | 84 | 1011.4 |
| 20260508231200 | 72 | 111 | 4.0 | 5.0 | 0.00 | 0.00 | 0.01 | 84 | 1011.3 |
| 20260508230701 | 72 | 88 | 2.0 | 3.0 | 0.00 | 0.00 | 0.01 | 83 | 1011.2 |
| 20260508230205 | 72 | 161 | 0.0 | 1.0 | 0.00 | 0.00 | 0.01 | 83 | 1011.2 |
| 20260508225701 | 72 | 115 | 2.0 | 4.0 | 0.00 | 0.00 | 0.01 | 83 | 1011.1 |
| 20260508225200 | 72 | 118 | 2.0 | 3.0 | 0.00 | 0.00 | 0.01 | 83 | 1011.0 |
| 20260508224701 | 72 | 168 | 2.0 | 5.0 | 0.00 | 0.00 | 0.01 | 83 | 1011.0 |
| 20260508224201 | 72 | 154 | 4.0 | 5.0 | 0.00 | 0.00 | 0.01 | 83 | 1011.0 |
| 20260508223700 | 73 | 129 | 2.0 | 4.0 | 0.00 | 0.00 | 0.01 | 83 | 1010.8 |
| 20260508223200 | 73 | 81 | 3.0 | 4.0 | 0.00 | 0.00 | 0.01 | 82 | 1010.8 |
| 20260508222702 | 73 | 114 | 6.0 | 9.0 | 0.00 | 0.00 | 0.01 | 81 | 1010.8 |
| 20260508222202 | 72 | 154 | 3.0 | 4.0 | 0.00 | 0.00 | 0.01 | 83 | 1010.8 |
| 20260508221703 | 72 | 129 | 3.0 | 4.0 | 0.00 | 0.00 | 0.01 | 82 | 1011.0 |
| 20260508221202 | 72 | 143 | 3.0 | 4.0 | 0.00 | 0.00 | 0.01 | 82 | 1011.0 |
| 20260508220700 | 72 | 127 | 2.0 | 4.0 | 0.00 | 0.00 | 0.01 | 82 | 1011.0 |
| 20260508220201 | 72 | 84 | 2.0 | 3.0 | 0.00 | 0.00 | 0.01 | 82 | 1011.0 |
| 20260508215702 | 72 | 167 | 2.0 | 4.0 | 0.00 | 0.00 | 0.01 | 82 | 1011.1 |
| 20260508215201 | 72 | 170 | 6.0 | 8.0 | 0.00 | 0.00 | 0.01 | 81 | 1011.1 |
| 20260508214702 | 72 | 169 | 5.0 | 8.0 | 0.00 | 0.00 | 0.01 | 80 | 1011.0 |
| 20260508214202 | 73 | 158 | 6.0 | 9.0 | 0.00 | 0.00 | 0.01 | 80 | 1011.1 |
| 20260508213701 | 73 | 151 | 4.0 | 8.0 | 0.00 | 0.00 | 0.01 | 80 | 1011.2 |
| 20260508213203 | 73 | 160 | 6.0 | 8.0 | 0.00 | 0.00 | 0.01 | 80 | 1011.2 |
| 20260508212703 | 73 | 176 | 5.0 | 9.0 | 0.00 | 0.00 | 0.01 | 79 | 1011.4 |
| 20260508212201 | 73 | 108 | 4.0 | 6.0 | 0.00 | 0.00 | 0.01 | 78 | 1011.2 |
| 20260508211703 | 73 | 164 | 4.0 | 6.0 | 0.00 | 0.00 | 0.01 | 77 | 1011.5 |
| 20260508211203 | 73 | 162 | 2.0 | 4.0 | 0.00 | 0.00 | 0.01 | 76 | 1011.6 |
| 20260508210702 | 73 | 148 | 3.0 | 5.0 | 0.00 | 0.00 | 0.01 | 76 | 1011.6 |
| 20260508210202 | 73 | 88 | 2.0 | 4.0 | 0.00 | 0.00 | 0.01 | 75 | 1011.6 |
| 20260508205703 | 73 | 92 | 3.0 | 6.0 | 0.00 | 0.00 | 0.01 | 74 | 1011.6 |
| 20260508205202 | 73 | 125 | 2.0 | 6.0 | 0.00 | 0.00 | 0.01 | 74 | 1011.6 |
| 20260508204703 | 73 | 93 | 2.0 | 5.0 | 0.00 | 0.00 | 0.01 | 73 | 1011.7 |
| 20260508204203 | 72 | 76 | 3.0 | 5.0 | 0.00 | 0.00 | 0.01 | 75 | 1011.6 |
| 20260508203702 | 72 | 161 | 7.0 | 9.0 | 0.00 | 0.00 | 0.01 | 74 | 1011.7 |
| 20260508203201 | 72 | 114 | 2.0 | 4.0 | 0.00 | 0.00 | 0.01 | 75 | 1011.7 |
| 20260508202704 | 72 | 104 | 4.0 | 8.0 | 0.00 | 0.00 | 0.01 | 74 | 1011.7 |
| 20260508202202 | 72 | 108 | 4.0 | 6.0 | 0.00 | 0.00 | 0.01 | 74 | 1011.7 |
| 20260508201701 | 72 | 154 | 5.0 | 8.0 | 0.00 | 0.00 | 0.01 | 73 | 1011.7 |
| 20260508201203 | 71 | 88 | 3.0 | 5.0 | 0.00 | 0.00 | 0.01 | 72 | 1011.7 |
| 20260508200702 | 71 | 144 | 4.0 | 7.0 | 0.00 | 0.00 | 0.01 | 75 | 1011.9 |
| 20260508200203 | 71 | 166 | 4.0 | 6.0 | 0.00 | 0.00 | 0.01 | 72 | 1011.8 |
| 20260508195702 | 71 | 91 | 3.0 | 6.0 | 0.00 | 0.00 | 0.01 | 72 | 1011.8 |
| 20260508195203 | 71 | 167 | 3.0 | 4.0 | 0.00 | 0.00 | 0.01 | 72 | 1011.8 |
| 20260508194702 | 70 | 112 | 4.0 | 5.0 | 0.00 | 0.00 | 0.01 | 73 | 1011.9 |
| 20260508194202 | 69 | 104 | 4.0 | 7.0 | 0.00 | 0.00 | 0.01 | 74 | 1011.9 |
| 20260508193703 | 69 | 106 | 4.0 | 7.0 | 0.00 | 0.00 | 0.01 | 73 | 1011.9 |
| 20260508193202 | 69 | 115 | 3.0 | 5.0 | 0.00 | 0.00 | 0.01 | 73 | 1012.0 |
| 20260508192703 | 69 | 101 | 4.0 | 6.0 | 0.00 | 0.00 | 0.01 | 72 | 1012.2 |
| 20260508192202 | 69 | 114 | 3.0 | 5.0 | 0.00 | 0.00 | 0.01 | 73 | 1012.3 |
| 20260508191703 | 69 | 148 | 4.0 | 7.0 | 0.00 | 0.00 | 0.01 | 74 | 1012.2 |
| 20260508191201 | 69 | 106 | 4.0 | 6.0 | 0.00 | 0.00 | 0.01 | 74 | 1012.3 |
| 20260508190700 | 69 | 60 | 4.0 | 5.0 | 0.00 | 0.00 | 0.01 | 74 | 1012.4 |
| 20260508190204 | 69 | 111 | 4.0 | 5.0 | 0.00 | 0.00 | 0.01 | 73 | 1012.5 |
| 20260508185702 | 68 | 146 | 2.0 | 4.0 | 0.00 | 0.00 | 0.01 | 74 | 1012.5 |
| 20260508185202 | 68 | 108 | 5.0 | 7.0 | 0.00 | 0.00 | 0.01 | 74 | 1012.5 |
| 20260508184701 | 67 | 89 | 5.0 | 9.0 | 0.00 | 0.00 | 0.01 | 75 | 1012.6 |